Time,TemperatureF,DewpointF,PressureIn,WindDirection,WindDirectionDegrees,WindSpeedMPH,WindSpeedGustMPH,Humidity,HourlyPrecipIn,Conditions,Clouds,dailyrainin,SoftwareType,DateUTC
2013-01-09 00:09:00,35.7,31.9,30.05,West,281,13.0,13.0,86,0.00,,,0.00,Wunderground v.1.15,2013-01-09 06:09:00,
2013-01-09 00:30:00,35.5,31.4,30.05,West,271,7.0,10.0,85,0.00,,,0.00,Wunderground v.1.15,2013-01-09 06:30:00,
2013-01-09 00:36:00,35.1,31.0,30.06,West,263,7.0,10.0,85,0.00,,,0.00,Wunderground v.1.15,2013-01-09 06:36:00,
2013-01-09 00:50:00,34.7,31.2,30.06,West,271,9.0,11.0,87,0.00,,,0.00,Wunderground v.1.15,2013-01-09 06:50:00,
2013-01-09 01:00:00,34.2,30.7,30.07,West,274,9.0,9.0,87,0.00,,,0.00,Wunderground v.1.15,2013-01-09 07:00:00,
2013-01-09 01:06:00,34.1,30.9,30.07,West,264,8.0,9.0,88,0.00,,,0.00,Wunderground v.1.15,2013-01-09 07:06:00,
2013-01-09 01:16:00,34.1,30.9,30.08,WSW,257,8.0,8.0,88,0.00,,,0.00,Wunderground v.1.15,2013-01-09 07:16:00,
2013-01-09 01:23:00,33.8,30.3,30.09,WSW,257,8.0,8.0,87,0.00,,,0.00,Wunderground v.1.15,2013-01-09 07:23:00,
2013-01-09 01:32:00,33.3,30.1,30.09,West,265,6.0,7.0,88,0.00,,,0.00,Wunderground v.1.15,2013-01-09 07:32:00,
2013-01-09 01:38:00,33.1,30.2,30.09,WSW,252,9.0,10.0,89,0.00,,,0.00,Wunderground v.1.15,2013-01-09 07:38:00,
2013-01-09 01:46:00,33.1,29.9,30.09,West,261,6.0,8.0,88,0.00,,,0.00,Wunderground v.1.15,2013-01-09 07:46:00,
2013-01-09 01:53:00,32.7,29.8,30.10,West,265,7.0,9.0,89,0.00,,,0.00,Wunderground v.1.15,2013-01-09 07:53:00,
2013-01-09 01:58:00,33.1,30.5,30.10,West,268,9.0,10.0,90,0.00,,,0.00,Wunderground v.1.15,2013-01-09 07:58:00,
2013-01-09 02:03:00,33.6,30.7,30.11,West,279,10.0,11.0,89,0.00,,,0.00,Wunderground v.1.15,2013-01-09 08:03:00,
2013-01-09 02:08:00,33.7,30.5,30.11,West,264,10.0,13.0,88,0.00,,,0.00,Wunderground v.1.15,2013-01-09 08:08:00,
2013-01-09 02:14:00,33.9,30.7,30.12,West,267,12.0,12.0,88,0.00,,,0.00,Wunderground v.1.15,2013-01-09 08:14:00,
2013-01-09 02:19:00,33.7,30.5,30.12,West,260,11.0,13.0,88,0.00,,,0.00,Wunderground v.1.15,2013-01-09 08:19:00,
2013-01-09 02:25:00,33.7,30.5,30.12,West,269,10.0,13.0,88,0.00,,,0.00,Wunderground v.1.15,2013-01-09 08:25:00,
2013-01-09 02:30:00,33.7,30.5,30.13,West,270,12.0,13.0,88,0.00,,,0.00,Wunderground v.1.15,2013-01-09 08:30:00,
2013-01-09 02:35:00,33.7,30.5,30.13,West,266,12.0,12.0,88,0.00,,,0.00,Wunderground v.1.15,2013-01-09 08:35:00,
2013-01-09 02:40:00,33.6,30.1,30.13,West,265,11.0,12.0,87,0.00,,,0.00,Wunderground v.1.15,2013-01-09 08:40:00,
2013-01-09 02:45:00,33.5,30.3,30.13,West,275,7.0,10.0,88,0.00,,,0.00,Wunderground v.1.15,2013-01-09 08:45:00,
2013-01-09 02:50:00,33.4,30.2,30.14,West,273,7.0,10.0,88,0.00,,,0.00,Wunderground v.1.15,2013-01-09 08:50:00,
2013-01-09 02:55:00,33.4,30.2,30.14,West,275,7.0,8.0,88,0.00,,,0.00,Wunderground v.1.15,2013-01-09 08:55:00,
2013-01-09 03:01:00,33.0,29.8,30.14,West,265,8.0,9.0,88,0.00,,,0.00,Wunderground v.1.15,2013-01-09 09:01:00,
2013-01-09 03:06:00,32.5,29.3,30.13,West,269,6.0,8.0,88,0.00,,,0.00,Wunderground v.1.15,2013-01-09 09:06:00,
2013-01-09 03:12:00,32.3,29.4,30.13,West,265,7.0,8.0,89,0.00,,,0.00,Wunderground v.1.15,2013-01-09 09:12:00,
2013-01-09 03:18:00,32.1,29.2,30.14,West,263,7.0,9.0,89,0.00,,,0.00,Wunderground v.1.15,2013-01-09 09:18:00,
2013-01-09 03:23:00,31.8,28.9,30.14,WSW,258,6.0,7.0,89,0.00,,,0.00,Wunderground v.1.15,2013-01-09 09:23:00,
2013-01-09 03:28:00,31.5,28.9,30.14,West,262,6.0,8.0,90,0.00,,,0.00,Wunderground v.1.15,2013-01-09 09:28:00,
2013-01-09 03:33:00,31.5,28.9,30.14,West,263,7.0,10.0,90,0.00,,,0.00,Wunderground v.1.15,2013-01-09 09:33:00,
2013-01-09 03:44:00,31.8,29.2,30.15,West,265,7.0,7.0,90,0.00,,,0.00,Wunderground v.1.15,2013-01-09 09:44:00,
2013-01-09 03:49:00,31.6,29.0,30.15,West,263,7.0,8.0,90,0.00,,,0.00,Wunderground v.1.15,2013-01-09 09:49:00,
2013-01-09 03:54:00,31.6,29.0,30.15,West,260,7.0,7.0,90,0.00,,,0.00,Wunderground v.1.15,2013-01-09 09:54:00,
2013-01-09 03:59:00,31.6,29.0,30.16,West,265,8.0,9.0,90,0.00,,,0.00,Wunderground v.1.15,2013-01-09 09:59:00,
2013-01-09 04:04:00,31.7,29.1,30.16,West,267,8.0,10.0,90,0.00,,,0.00,Wunderground v.1.15,2013-01-09 10:04:00,
2013-01-09 04:09:00,32.1,29.5,30.16,West,273,6.0,7.0,90,0.00,,,0.00,Wunderground v.1.15,2013-01-09 10:09:00,
2013-01-09 04:14:00,32.5,29.6,30.16,West,277,6.0,8.0,89,0.00,,,0.00,Wunderground v.1.15,2013-01-09 10:14:00,
2013-01-09 04:19:00,32.5,29.6,30.16,West,279,9.0,11.0,89,0.00,,,0.00,Wunderground v.1.15,2013-01-09 10:19:00,
2013-01-09 04:24:00,32.9,30.0,30.17,West,271,8.0,12.0,89,0.00,,,0.00,Wunderground v.1.15,2013-01-09 10:24:00,
2013-01-09 04:29:00,33.2,30.0,30.17,West,265,6.0,12.0,88,0.00,,,0.00,Wunderground v.1.15,2013-01-09 10:29:00,
2013-01-09 04:34:00,33.2,29.8,30.17,West,275,6.0,10.0,87,0.00,,,0.00,Wunderground v.1.15,2013-01-09 10:34:00,
2013-01-09 04:39:00,33.2,29.8,30.17,West,263,8.0,11.0,87,0.00,,,0.00,Wunderground v.1.15,2013-01-09 10:39:00,
2013-01-09 04:44:00,33.4,29.9,30.17,West,272,9.0,9.0,87,0.00,,,0.00,Wunderground v.1.15,2013-01-09 10:44:00,
2013-01-09 04:49:00,33.0,29.3,30.17,West,269,8.0,10.0,86,0.00,,,0.00,Wunderground v.1.15,2013-01-09 10:49:00,
2013-01-09 04:54:00,32.6,29.2,30.18,West,280,8.0,9.0,87,0.00,,,0.00,Wunderground v.1.15,2013-01-09 10:54:00,
2013-01-09 04:59:00,32.9,29.7,30.18,West,281,6.0,11.0,88,0.00,,,0.00,Wunderground v.1.15,2013-01-09 10:59:00,
2013-01-09 05:04:00,33.3,30.1,30.19,West,268,10.0,10.0,88,0.00,,,0.00,Wunderground v.1.15,2013-01-09 11:04:00,
2013-01-09 05:09:00,33.5,30.0,30.19,West,272,8.0,9.0,87,0.00,,,0.00,Wunderground v.1.15,2013-01-09 11:09:00,
2013-01-09 05:14:00,33.4,29.9,30.19,West,261,8.0,8.0,87,0.00,,,0.00,Wunderground v.1.15,2013-01-09 11:14:00,
2013-01-09 05:19:00,33.0,29.6,30.20,West,263,8.0,9.0,87,0.00,,,0.00,Wunderground v.1.15,2013-01-09 11:19:00,
2013-01-09 05:24:00,32.9,29.7,30.20,West,263,8.0,10.0,88,0.00,,,0.00,Wunderground v.1.15,2013-01-09 11:24:00,
2013-01-09 05:29:00,33.0,29.8,30.20,West,261,10.0,11.0,88,0.00,,,0.00,Wunderground v.1.15,2013-01-09 11:29:00,
2013-01-09 05:35:00,33.0,29.6,30.20,West,261,6.0,10.0,87,0.00,,,0.00,Wunderground v.1.15,2013-01-09 11:35:00,
2013-01-09 05:40:00,32.5,29.1,30.20,West,263,6.0,10.0,87,0.00,,,0.00,Wunderground v.1.15,2013-01-09 11:40:00,
2013-01-09 05:45:00,32.1,28.9,30.21,West,259,6.0,8.0,88,0.00,,,0.00,Wunderground v.1.15,2013-01-09 11:45:00,
2013-01-09 05:50:00,31.8,28.9,30.21,West,264,6.0,8.0,89,0.00,,,0.00,Wunderground v.1.15,2013-01-09 11:50:00,
2013-01-09 05:55:00,31.7,28.8,30.21,WSW,246,8.0,9.0,89,0.00,,,0.00,Wunderground v.1.15,2013-01-09 11:55:00,
2013-01-09 06:00:00,31.8,29.2,30.21,WSW,256,9.0,9.0,90,0.00,,,0.00,Wunderground v.1.15,2013-01-09 12:00:00,
2013-01-09 06:05:00,31.9,29.3,30.20,West,261,8.0,10.0,90,0.00,,,0.00,Wunderground v.1.15,2013-01-09 12:05:00,
2013-01-09 06:10:00,31.9,29.0,30.21,WSW,257,8.0,9.0,89,0.00,,,0.00,Wunderground v.1.15,2013-01-09 12:10:00,
2013-01-09 06:15:00,31.9,29.3,30.21,WSW,252,8.0,10.0,90,0.00,,,0.00,Wunderground v.1.15,2013-01-09 12:15:00,
2013-01-09 06:20:00,32.0,29.1,30.21,WSW,257,8.0,11.0,89,0.00,,,0.00,Wunderground v.1.15,2013-01-09 12:20:00,
2013-01-09 06:25:00,31.8,28.9,30.21,West,264,8.0,9.0,89,0.00,,,0.00,Wunderground v.1.15,2013-01-09 12:25:00,
2013-01-09 06:30:00,31.5,28.6,30.21,West,263,8.0,11.0,89,0.00,,,0.00,Wunderground v.1.15,2013-01-09 12:30:00,
2013-01-09 06:35:00,31.3,28.7,30.22,WSW,253,8.0,10.0,90,0.00,,,0.00,Wunderground v.1.15,2013-01-09 12:35:00,
2013-01-09 06:40:00,31.0,28.4,30.22,WSW,258,6.0,10.0,90,0.00,,,0.00,Wunderground v.1.15,2013-01-09 12:40:00,
2013-01-09 06:45:00,30.8,28.2,30.22,WSW,256,8.0,8.0,90,0.00,,,0.00,Wunderground v.1.15,2013-01-09 12:45:00,
2013-01-09 06:50:00,30.9,28.3,30.23,WSW,258,9.0,10.0,90,0.00,,,0.00,Wunderground v.1.15,2013-01-09 12:50:00,
2013-01-09 06:55:00,30.6,28.0,30.22,West,261,5.0,8.0,90,0.00,,,0.00,Wunderground v.1.15,2013-01-09 12:55:00,
2013-01-09 07:00:00,30.3,28.0,30.23,WSW,258,7.0,9.0,91,0.00,,,0.00,Wunderground v.1.15,2013-01-09 13:00:00,
2013-01-09 07:05:00,30.5,28.2,30.24,West,261,7.0,9.0,91,0.00,,,0.00,Wunderground v.1.15,2013-01-09 13:05:00,
2013-01-09 07:10:00,30.4,27.8,30.24,West,259,6.0,7.0,90,0.00,,,0.00,Wunderground v.1.15,2013-01-09 13:10:00,
2013-01-09 07:15:00,30.1,27.8,30.23,West,261,7.0,8.0,91,0.00,,,0.00,Wunderground v.1.15,2013-01-09 13:15:00,
2013-01-09 07:20:00,29.9,27.6,30.24,West,267,7.0,9.0,91,0.00,,,0.00,Wunderground v.1.15,2013-01-09 13:20:00,
2013-01-09 07:25:00,30.2,28.2,30.24,WNW,282,6.0,11.0,92,0.00,,,0.00,Wunderground v.1.15,2013-01-09 13:25:00,
2013-01-09 07:30:00,30.4,28.1,30.24,WNW,282,7.0,11.0,91,0.00,,,0.00,Wunderground v.1.15,2013-01-09 13:30:00,
2013-01-09 07:35:00,29.9,27.3,30.23,WNW,292,6.0,8.0,90,0.00,,,0.00,Wunderground v.1.15,2013-01-09 13:35:00,
2013-01-09 07:40:00,29.4,26.8,30.23,WNW,285,7.0,9.0,90,0.00,,,0.00,Wunderground v.1.15,2013-01-09 13:40:00,
2013-01-09 07:45:00,29.3,27.0,30.24,West,274,8.0,9.0,91,0.00,,,0.00,Wunderground v.1.15,2013-01-09 13:45:00,
2013-01-09 07:50:00,29.8,27.8,30.24,West,275,5.0,9.0,92,0.00,,,0.00,Wunderground v.1.15,2013-01-09 13:50:00,
2013-01-09 07:55:00,30.1,27.8,30.24,West,269,5.0,7.0,91,0.00,,,0.00,Wunderground v.1.15,2013-01-09 13:55:00,
2013-01-09 08:00:00,30.2,27.9,30.24,WNW,288,6.0,8.0,91,0.00,,,0.00,Wunderground v.1.15,2013-01-09 14:00:00,
2013-01-09 08:05:00,29.8,27.2,30.25,WNW,289,4.0,6.0,90,0.00,,,0.00,Wunderground v.1.15,2013-01-09 14:05:00,
2013-01-09 08:10:00,29.4,26.8,30.26,WNW,286,7.0,9.0,90,0.00,,,0.00,Wunderground v.1.15,2013-01-09 14:10:00,
2013-01-09 08:15:00,29.4,27.1,30.26,WNW,285,6.0,9.0,91,0.00,,,0.00,Wunderground v.1.15,2013-01-09 14:15:00,
2013-01-09 08:20:00,29.2,26.9,30.26,WNW,284,5.0,9.0,91,0.00,,,0.00,Wunderground v.1.15,2013-01-09 14:20:00,
2013-01-09 08:25:00,29.4,27.4,30.26,West,273,6.0,9.0,92,0.00,,,0.00,Wunderground v.1.15,2013-01-09 14:25:00,
2013-01-09 08:30:00,29.9,27.9,30.27,WSW,257,8.0,9.0,92,0.00,,,0.00,Wunderground v.1.15,2013-01-09 14:30:00,
2013-01-09 08:35:00,30.0,27.7,30.27,West,264,7.0,9.0,91,0.00,,,0.00,Wunderground v.1.15,2013-01-09 14:35:00,
2013-01-09 08:40:00,29.8,27.5,30.27,WSW,256,7.0,10.0,91,0.00,,,0.00,Wunderground v.1.15,2013-01-09 14:40:00,
2013-01-09 08:45:00,29.8,27.5,30.28,WSW,244,6.0,9.0,91,0.00,,,0.00,Wunderground v.1.15,2013-01-09 14:45:00,
2013-01-09 08:50:00,30.2,28.2,30.28,WSW,248,7.0,9.0,92,0.00,,,0.00,Wunderground v.1.15,2013-01-09 14:50:00,
2013-01-09 08:55:00,30.5,28.2,30.27,West,261,4.0,6.0,91,0.00,,,0.00,Wunderground v.1.15,2013-01-09 14:55:00,
2013-01-09 09:00:00,30.5,28.2,30.27,WNW,293,4.0,5.0,91,0.00,,,0.00,Wunderground v.1.15,2013-01-09 15:00:00,
2013-01-09 09:05:00,30.4,27.8,30.27,WNW,298,4.0,5.0,90,0.00,,,0.00,Wunderground v.1.15,2013-01-09 15:05:00,
2013-01-09 09:10:00,30.2,27.6,30.28,WNW,292,4.0,4.0,90,0.00,,,0.00,Wunderground v.1.15,2013-01-09 15:10:00,
2013-01-09 09:15:00,30.3,28.0,30.29,West,260,4.0,6.0,91,0.00,,,0.00,Wunderground v.1.15,2013-01-09 15:15:00,
2013-01-09 09:20:00,30.7,28.7,30.30,WSW,252,4.0,6.0,92,0.00,,,0.00,Wunderground v.1.15,2013-01-09 15:20:00,
2013-01-09 09:25:00,31.0,28.7,30.30,WSW,248,5.0,8.0,91,0.00,,,0.00,Wunderground v.1.15,2013-01-09 15:25:00,
2013-01-09 09:30:00,31.5,29.2,30.31,WSW,253,7.0,10.0,91,0.00,,,0.00,Wunderground v.1.15,2013-01-09 15:30:00,
2013-01-09 09:35:00,31.9,29.6,30.32,WSW,250,9.0,10.0,91,0.00,,,0.00,Wunderground v.1.15,2013-01-09 15:35:00,
2013-01-09 09:40:00,32.4,29.8,30.32,WSW,246,6.0,10.0,90,0.00,,,0.00,Wunderground v.1.15,2013-01-09 15:40:00,
2013-01-09 09:45:00,32.9,30.0,30.33,WSW,247,8.0,11.0,89,0.00,,,0.00,Wunderground v.1.15,2013-01-09 15:45:00,
2013-01-09 09:50:00,33.1,30.2,30.33,SW,229,7.0,11.0,89,0.00,,,0.00,Wunderground v.1.15,2013-01-09 15:50:00,
2013-01-09 09:55:00,33.2,30.3,30.33,WSW,239,11.0,13.0,89,0.00,,,0.00,Wunderground v.1.15,2013-01-09 15:55:00,
2013-01-09 10:00:00,33.2,30.3,30.34,WSW,242,10.0,10.0,89,0.00,,,0.00,Wunderground v.1.15,2013-01-09 16:00:00,
2013-01-09 10:05:00,33.5,30.6,30.34,WSW,240,8.0,12.0,89,0.00,,,0.00,Wunderground v.1.15,2013-01-09 16:05:00,
2013-01-09 10:10:00,33.9,31.0,30.35,SW,234,8.0,11.0,89,0.00,,,0.00,Wunderground v.1.15,2013-01-09 16:10:00,
2013-01-09 10:15:00,34.2,31.3,30.36,SW,223,10.0,12.0,89,0.00,,,0.00,Wunderground v.1.15,2013-01-09 16:15:00,
2013-01-09 10:20:00,34.3,31.4,30.38,SW,221,15.0,16.0,89,0.00,,,0.00,Wunderground v.1.15,2013-01-09 16:20:00,
2013-01-09 10:25:00,34.4,31.5,30.38,SW,223,15.0,18.0,89,0.00,,,0.00,Wunderground v.1.15,2013-01-09 16:25:00,
2013-01-09 10:30:00,34.5,31.6,30.38,SW,235,13.0,19.0,89,0.00,,,0.00,Wunderground v.1.15,2013-01-09 16:30:00,
2013-01-09 10:35:00,34.5,31.3,30.38,WSW,243,14.0,19.0,88,0.00,,,0.00,Wunderground v.1.15,2013-01-09 16:35:00,
2013-01-09 10:40:00,34.6,31.4,30.39,SW,235,12.0,19.0,88,0.00,,,0.00,Wunderground v.1.15,2013-01-09 16:40:00,
2013-01-09 10:45:00,34.9,31.7,30.40,SW,232,16.0,19.0,88,0.00,,,0.00,Wunderground v.1.15,2013-01-09 16:45:00,
2013-01-09 10:53:00,35.3,32.4,30.42,SW,225,18.0,18.0,89,0.00,,,0.00,Wunderground v.1.15,2013-01-09 16:53:00,
2013-01-09 10:58:00,35.6,32.4,30.42,SW,236,12.0,21.0,88,0.00,,,0.00,Wunderground v.1.15,2013-01-09 16:58:00,
2013-01-09 11:03:00,35.9,32.7,30.42,WSW,243,13.0,15.0,88,0.00,,,0.00,Wunderground v.1.15,2013-01-09 17:03:00,
2013-01-09 11:08:00,36.0,32.8,30.42,WSW,244,16.0,18.0,88,0.00,,,0.00,Wunderground v.1.15,2013-01-09 17:08:00,
2013-01-09 11:13:00,36.3,32.8,30.42,WSW,240,15.0,16.0,87,0.00,,,0.00,Wunderground v.1.15,2013-01-09 17:13:00,
2013-01-09 11:18:00,36.6,33.1,30.41,WSW,240,11.0,18.0,87,0.00,,,0.00,Wunderground v.1.15,2013-01-09 17:18:00,
2013-01-09 11:23:00,36.8,33.0,30.41,WSW,244,11.0,13.0,86,0.00,,,0.00,Wunderground v.1.15,2013-01-09 17:23:00,
2013-01-09 11:28:00,37.0,33.2,30.41,WSW,254,12.0,18.0,86,0.00,,,0.00,Wunderground v.1.15,2013-01-09 17:28:00,
2013-01-09 11:33:00,37.2,33.1,30.40,West,265,12.0,12.0,85,0.00,,,0.00,Wunderground v.1.15,2013-01-09 17:33:00,
2013-01-09 11:38:00,37.4,33.3,30.40,WSW,246,13.0,17.0,85,0.00,,,0.00,Wunderground v.1.15,2013-01-09 17:38:00,
2013-01-09 11:43:00,37.5,33.4,30.41,WSW,249,14.0,16.0,85,0.00,,,0.00,Wunderground v.1.15,2013-01-09 17:43:00,
2013-01-09 11:48:00,37.6,33.5,30.40,West,269,10.0,16.0,85,0.00,,,0.00,Wunderground v.1.15,2013-01-09 17:48:00,
2013-01-09 11:53:00,37.9,33.5,30.41,West,261,11.0,13.0,84,0.00,,,0.00,Wunderground v.1.15,2013-01-09 17:53:00,
2013-01-09 11:58:00,38.1,33.7,30.40,West,281,11.0,15.0,84,0.00,,,0.00,Wunderground v.1.15,2013-01-09 17:58:00,
2013-01-09 12:03:00,38.2,33.8,30.40,West,266,11.0,11.0,84,0.00,,,0.00,Wunderground v.1.15,2013-01-09 18:03:00,
2013-01-09 12:08:00,38.2,33.5,30.41,West,261,11.0,16.0,83,0.00,,,0.00,Wunderground v.1.15,2013-01-09 18:08:00,
2013-01-09 12:13:00,38.2,33.5,30.41,WSW,250,10.0,13.0,83,0.00,,,0.00,Wunderground v.1.15,2013-01-09 18:13:00,
2013-01-09 12:18:00,38.2,33.8,30.40,West,259,10.0,14.0,84,0.00,,,0.00,Wunderground v.1.15,2013-01-09 18:18:00,
2013-01-09 12:23:00,38.4,33.7,30.40,West,262,13.0,17.0,83,0.00,,,0.00,Wunderground v.1.15,2013-01-09 18:23:00,
2013-01-09 12:28:00,38.6,33.9,30.40,West,271,10.0,17.0,83,0.00,,,0.00,Wunderground v.1.15,2013-01-09 18:28:00,
2013-01-09 12:33:00,38.6,33.3,30.40,West,277,11.0,13.0,81,0.00,,,0.00,Wunderground v.1.15,2013-01-09 18:33:00,
2013-01-09 12:38:00,38.7,33.4,30.41,West,266,11.0,13.0,81,0.00,,,0.00,Wunderground v.1.15,2013-01-09 18:38:00,
2013-01-09 12:42:00,38.8,33.8,30.41,West,281,7.0,9.0,82,0.00,,,0.00,Wunderground v.1.15,2013-01-09 18:42:00,
2013-01-09 12:43:00,38.8,33.8,30.41,WNW,292,8.0,9.0,82,0.00,,,0.00,Wunderground v.1.15,2013-01-09 18:43:00,
2013-01-09 12:44:00,38.8,33.8,30.40,WNW,286,9.0,10.0,82,0.00,,,0.00,Wunderground v.1.15,2013-01-09 18:44:00,
2013-01-09 12:48:00,38.5,33.5,30.40,WNW,282,15.0,15.0,82,0.00,,,0.00,Wunderground v.1.15,2013-01-09 18:48:00,
2013-01-09 12:49:00,38.4,33.4,30.40,WNW,288,9.0,15.0,82,0.00,,,0.00,Wunderground v.1.15,2013-01-09 18:49:00,
2013-01-09 12:54:00,38.3,33.3,30.41,West,279,13.0,17.0,82,0.00,,,0.00,Wunderground v.1.15,2013-01-09 18:54:00,
2013-01-09 12:59:00,38.4,33.4,30.40,WNW,294,9.0,17.0,82,0.00,,,0.00,Wunderground v.1.15,2013-01-09 18:59:00,
2013-01-09 13:04:00,38.4,33.4,30.41,West,271,12.0,14.0,82,0.00,,,0.00,Wunderground v.1.15,2013-01-09 19:04:00,
2013-01-09 13:09:00,38.4,33.1,30.40,WNW,287,10.0,13.0,81,0.00,,,0.00,Wunderground v.1.15,2013-01-09 19:09:00,
2013-01-09 13:14:00,38.5,33.2,30.41,West,267,8.0,14.0,81,0.00,,,0.00,Wunderground v.1.15,2013-01-09 19:14:00,
2013-01-09 13:19:00,38.6,33.3,30.41,WNW,285,7.0,14.0,81,0.00,,,0.00,Wunderground v.1.15,2013-01-09 19:19:00,
2013-01-09 13:24:00,38.6,33.3,30.40,West,276,7.0,13.0,81,0.00,,,0.00,Wunderground v.1.15,2013-01-09 19:24:00,
2013-01-09 13:29:00,38.3,33.6,30.40,West,278,8.0,13.0,83,0.00,,,0.00,Wunderground v.1.15,2013-01-09 19:29:00,
2013-01-09 13:34:00,38.3,33.6,30.40,West,273,7.0,11.0,83,0.00,,,0.00,Wunderground v.1.15,2013-01-09 19:34:00,
2013-01-09 13:39:00,38.4,33.4,30.41,WNW,286,7.0,11.0,82,0.00,,,0.00,Wunderground v.1.15,2013-01-09 19:39:00,
2013-01-09 13:58:00,38.2,33.2,30.42,WNW,295,9.0,12.0,82,0.00,,,0.00,Wunderground v.1.15,2013-01-09 19:58:00,
2013-01-09 14:03:00,38.2,33.2,30.41,WNW,297,7.0,9.0,82,0.00,,,0.00,Wunderground v.1.15,2013-01-09 20:03:00,
2013-01-09 14:08:00,38.2,32.9,30.41,WNW,296,12.0,13.0,81,0.00,,,0.00,Wunderground v.1.15,2013-01-09 20:08:00,
2013-01-09 14:13:00,38.2,33.2,30.40,NW,309,9.0,13.0,82,0.00,,,0.00,Wunderground v.1.15,2013-01-09 20:13:00,
2013-01-09 14:18:00,38.2,32.9,30.40,NW,306,8.0,13.0,81,0.00,,,0.00,Wunderground v.1.15,2013-01-09 20:18:00,
2013-01-09 14:23:00,38.2,32.9,30.40,WNW,302,9.0,10.0,81,0.00,,,0.00,Wunderground v.1.15,2013-01-09 20:23:00,
2013-01-09 14:28:00,38.3,33.3,30.40,NW,305,9.0,10.0,82,0.00,,,0.00,Wunderground v.1.15,2013-01-09 20:28:00,
2013-01-09 14:33:00,38.4,33.4,30.39,WNW,299,10.0,11.0,82,0.00,,,0.00,Wunderground v.1.15,2013-01-09 20:33:00,
2013-01-09 14:38:00,38.7,33.4,30.40,WNW,302,10.0,11.0,81,0.00,,,0.00,Wunderground v.1.15,2013-01-09 20:38:00,
2013-01-09 14:44:00,38.8,33.2,30.40,WNW,300,9.0,9.0,80,0.00,,,0.00,Wunderground v.1.15,2013-01-09 20:44:00,
2013-01-09 14:49:00,38.7,33.1,30.39,NW,309,8.0,11.0,80,0.00,,,0.00,Wunderground v.1.15,2013-01-09 20:49:00,
2013-01-09 14:54:00,38.7,33.4,30.39,NW,317,6.0,9.0,81,0.00,,,0.00,Wunderground v.1.15,2013-01-09 20:54:00,
2013-01-09 14:59:00,38.5,33.5,30.39,NW,313,8.0,9.0,82,0.00,,,0.00,Wunderground v.1.15,2013-01-09 20:59:00,
2013-01-09 15:03:00,38.2,33.5,30.39,NW,321,6.0,8.0,83,0.00,,,0.00,Wunderground v.1.15,2013-01-09 21:03:00,
2013-01-09 15:09:00,37.8,33.1,30.39,NW,317,8.0,8.0,83,0.00,,,0.00,Wunderground v.1.15,2013-01-09 21:09:00,
2013-01-09 15:14:00,37.4,33.0,30.40,NW,319,6.0,8.0,84,0.00,,,0.00,Wunderground v.1.15,2013-01-09 21:14:00,
2013-01-09 15:18:00,37.3,32.9,30.40,NW,312,5.0,8.0,84,0.00,,,0.00,Wunderground v.1.15,2013-01-09 21:18:00,
2013-01-09 15:23:00,37.2,32.8,30.40,WNW,302,3.0,7.0,84,0.00,,,0.00,Wunderground v.1.15,2013-01-09 21:23:00,
2013-01-09 15:28:00,37.0,32.6,30.40,WNW,302,3.0,7.0,84,0.00,,,0.00,Wunderground v.1.15,2013-01-09 21:28:00,
2013-01-09 15:34:00,36.7,32.6,30.40,WNW,302,2.0,4.0,85,0.00,,,0.00,Wunderground v.1.15,2013-01-09 21:34:00,
2013-01-09 15:39:00,36.4,32.6,30.40,WNW,302,4.0,4.0,86,0.00,,,0.00,Wunderground v.1.15,2013-01-09 21:39:00,
2013-01-09 15:44:00,36.2,32.7,30.40,NW,316,3.0,4.0,87,0.00,,,0.00,Wunderground v.1.15,2013-01-09 21:44:00,
2013-01-09 15:49:00,36.1,32.6,30.39,NNW,329,4.0,5.0,87,0.00,,,0.00,Wunderground v.1.15,2013-01-09 21:49:00,
2013-01-09 15:54:00,36.0,32.5,30.40,NNW,331,2.0,4.0,87,0.00,,,0.00,Wunderground v.1.15,2013-01-09 21:54:00,
2013-01-09 15:59:00,36.0,32.8,30.40,NNW,331,2.0,4.0,88,0.00,,,0.00,Wunderground v.1.15,2013-01-09 21:59:00,
2013-01-09 16:06:00,36.0,32.5,30.41,NNW,331,2.0,2.0,87,0.00,,,0.00,Wunderground v.1.15,2013-01-09 22:06:00,
2013-01-09 16:12:00,35.9,32.4,30.41,NNW,331,3.0,3.0,87,0.00,,,0.00,Wunderground v.1.15,2013-01-09 22:12:00,
2013-01-09 16:17:00,35.6,32.1,30.41,NNW,331,2.0,3.0,87,0.00,,,0.00,Wunderground v.1.15,2013-01-09 22:17:00,
2013-01-09 16:22:00,35.3,31.8,30.41,NNW,331,0.0,2.0,87,0.00,,,0.00,Wunderground v.1.15,2013-01-09 22:22:00,
2013-01-09 16:28:00,35.1,31.9,30.41,NNW,331,2.0,3.0,88,0.00,,,0.00,Wunderground v.1.15,2013-01-09 22:28:00,
2013-01-09 16:33:00,34.9,31.7,30.41,NNW,331,1.0,2.0,88,0.00,,,0.00,Wunderground v.1.15,2013-01-09 22:33:00,
2013-01-09 16:38:00,34.8,31.9,30.41,NNW,331,1.0,2.0,89,0.00,,,0.00,Wunderground v.1.15,2013-01-09 22:38:00,
2013-01-09 16:43:00,34.8,31.9,30.41,NNW,331,1.0,1.0,89,0.00,,,0.00,Wunderground v.1.15,2013-01-09 22:43:00,
2013-01-09 16:48:00,34.8,31.9,30.41,NNW,331,1.0,1.0,89,0.00,,,0.00,Wunderground v.1.15,2013-01-09 22:48:00,
2013-01-09 16:53:00,34.6,31.7,30.41,NNW,331,1.0,2.0,89,0.00,,,0.00,Wunderground v.1.15,2013-01-09 22:53:00,
2013-01-09 16:58:00,34.5,31.6,30.41,NNW,331,0.0,2.0,89,0.00,,,0.00,Wunderground v.1.15,2013-01-09 22:58:00,
2013-01-09 17:03:00,34.5,31.9,30.42,NNW,331,0.0,0.0,90,0.00,,,0.00,Wunderground v.1.15,2013-01-09 23:03:00,
2013-01-09 17:08:00,34.6,32.0,30.42,NNW,331,0.0,0.0,90,0.00,,,0.00,Wunderground v.1.15,2013-01-09 23:08:00,
2013-01-09 17:13:00,34.6,31.7,30.41,NNW,331,0.0,0.0,89,0.00,,,0.00,Wunderground v.1.15,2013-01-09 23:13:00,
2013-01-09 17:18:00,34.5,31.6,30.41,NNW,331,0.0,1.0,89,0.00,,,0.00,Wunderground v.1.15,2013-01-09 23:18:00,
2013-01-09 17:24:00,34.5,31.9,30.42,NNW,331,0.0,0.0,90,0.00,,,0.00,Wunderground v.1.15,2013-01-09 23:24:00,
2013-01-09 17:29:00,34.6,32.0,30.42,NNW,331,0.0,1.0,90,0.00,,,0.00,Wunderground v.1.15,2013-01-09 23:29:00,
2013-01-09 17:35:00,34.7,31.8,30.42,NNW,331,0.0,1.0,89,0.00,,,0.00,Wunderground v.1.15,2013-01-09 23:35:00,
2013-01-09 17:40:00,34.6,31.7,30.42,NNW,331,0.0,1.0,89,0.00,,,0.00,Wunderground v.1.15,2013-01-09 23:40:00,
2013-01-09 17:45:00,34.3,31.1,30.41,NNW,331,0.0,0.0,88,0.00,,,0.00,Wunderground v.1.15,2013-01-09 23:45:00,
2013-01-09 17:50:00,34.0,31.1,30.42,NNW,331,1.0,2.0,89,0.00,,,0.00,Wunderground v.1.15,2013-01-09 23:50:00,
2013-01-09 17:55:00,33.9,31.0,30.42,NNW,331,0.0,1.0,89,0.00,,,0.00,Wunderground v.1.15,2013-01-09 23:55:00,
2013-01-09 18:00:00,33.8,31.2,30.42,NNW,331,0.0,0.0,90,0.00,,,0.00,Wunderground v.1.15,2013-01-10 00:00:00,
2013-01-09 18:05:00,33.8,31.2,30.42,NNW,331,0.0,0.0,90,0.00,,,0.00,Wunderground v.1.15,2013-01-10 00:05:00,
2013-01-09 18:10:00,33.7,31.1,30.42,NNW,331,1.0,2.0,90,0.00,,,0.00,Wunderground v.1.15,2013-01-10 00:10:00,
2013-01-09 18:15:00,33.6,31.0,30.42,NNW,331,0.0,2.0,90,0.00,,,0.00,Wunderground v.1.15,2013-01-10 00:15:00,
2013-01-09 18:20:00,33.5,30.9,30.42,NNW,331,0.0,2.0,90,0.00,,,0.00,Wunderground v.1.15,2013-01-10 00:20:00,
2013-01-09 18:25:00,33.4,30.8,30.42,NNW,331,0.0,0.0,90,0.00,,,0.00,Wunderground v.1.15,2013-01-10 00:25:00,
2013-01-09 18:30:00,33.5,31.2,30.42,NNW,331,0.0,1.0,91,0.00,,,0.00,Wunderground v.1.15,2013-01-10 00:30:00,
2013-01-09 18:35:00,33.6,31.0,30.42,NNW,331,1.0,3.0,90,0.00,,,0.00,Wunderground v.1.15,2013-01-10 00:35:00,
2013-01-09 18:40:00,33.3,30.7,30.42,NNW,331,2.0,3.0,90,0.00,,,0.00,Wunderground v.1.15,2013-01-10 00:40:00,
2013-01-09 18:45:00,32.8,29.9,30.42,NNW,331,2.0,3.0,89,0.00,,,0.00,Wunderground v.1.15,2013-01-10 00:45:00,
2013-01-09 18:50:00,32.3,29.7,30.42,NNW,331,2.0,3.0,90,0.00,,,0.00,Wunderground v.1.15,2013-01-10 00:50:00,
2013-01-09 18:55:00,32.0,29.4,30.42,NNW,331,1.0,2.0,90,0.00,,,0.00,Wunderground v.1.15,2013-01-10 00:55:00,
2013-01-09 19:00:00,31.9,29.6,30.42,NNW,331,1.0,1.0,91,0.00,,,0.00,Wunderground v.1.15,2013-01-10 01:00:00,
2013-01-09 19:05:00,31.8,29.5,30.42,NNW,331,0.0,1.0,91,0.00,,,0.00,Wunderground v.1.15,2013-01-10 01:05:00,
2013-01-09 19:10:00,31.9,29.8,30.42,NNW,331,0.0,1.0,92,0.00,,,0.00,Wunderground v.1.15,2013-01-10 01:10:00,
2013-01-09 19:15:00,32.1,30.0,30.43,NNW,331,2.0,2.0,92,0.00,,,0.00,Wunderground v.1.15,2013-01-10 01:15:00,
2013-01-09 19:20:00,32.2,30.1,30.43,NNW,331,2.0,3.0,92,0.00,,,0.00,Wunderground v.1.15,2013-01-10 01:20:00,
2013-01-09 19:25:00,32.0,29.7,30.43,NNW,331,2.0,3.0,91,0.00,,,0.00,Wunderground v.1.15,2013-01-10 01:25:00,
2013-01-09 19:30:00,31.6,29.3,30.43,WNW,302,2.0,3.0,91,0.00,,,0.00,Wunderground v.1.15,2013-01-10 01:30:00,
2013-01-09 19:35:00,31.2,28.9,30.43,WNW,302,2.0,3.0,91,0.00,,,0.00,Wunderground v.1.15,2013-01-10 01:35:00,
2013-01-09 19:40:00,30.9,28.6,30.44,WNW,297,4.0,4.0,91,0.00,,,0.00,Wunderground v.1.15,2013-01-10 01:40:00,
2013-01-09 19:45:00,30.5,28.5,30.44,SSE,168,5.0,5.0,92,0.00,,,0.00,Wunderground v.1.15,2013-01-10 01:45:00,
2013-01-09 19:50:00,30.2,28.2,30.45,SSE,161,2.0,5.0,92,0.00,,,0.00,Wunderground v.1.15,2013-01-10 01:50:00,
2013-01-09 19:55:00,30.1,28.1,30.44,SSE,155,2.0,4.0,92,0.00,,,0.00,Wunderground v.1.15,2013-01-10 01:55:00,
2013-01-09 20:00:00,29.9,27.9,30.44,SSE,162,2.0,4.0,92,0.00,,,0.00,Wunderground v.1.15,2013-01-10 02:00:00,
2013-01-09 20:05:00,29.9,28.1,30.44,SSE,147,4.0,5.0,93,0.00,,,0.00,Wunderground v.1.15,2013-01-10 02:05:00,
2013-01-09 20:10:00,30.3,28.5,30.44,SSE,166,4.0,4.0,93,0.00,,,0.00,Wunderground v.1.15,2013-01-10 02:10:00,
2013-01-09 20:15:00,30.3,28.5,30.44,SSE,155,5.0,5.0,93,0.00,,,0.00,Wunderground v.1.15,2013-01-10 02:15:00,
2013-01-09 20:20:00,30.3,28.5,30.45,SSE,155,2.0,5.0,93,0.00,,,0.00,Wunderground v.1.15,2013-01-10 02:20:00,
2013-01-09 20:25:00,30.3,28.5,30.45,SSE,149,1.0,3.0,93,0.00,,,0.00,Wunderground v.1.15,2013-01-10 02:25:00,
2013-01-09 20:30:00,30.3,28.5,30.45,SE,135,4.0,4.0,93,0.00,,,0.00,Wunderground v.1.15,2013-01-10 02:30:00,
2013-01-09 20:35:00,30.5,28.7,30.45,SE,146,4.0,5.0,93,0.00,,,0.00,Wunderground v.1.15,2013-01-10 02:35:00,
2013-01-09 20:40:00,30.4,28.6,30.45,SE,146,5.0,6.0,93,0.00,,,0.00,Wunderground v.1.15,2013-01-10 02:40:00,
2013-01-09 20:45:00,30.3,28.5,30.44,SE,136,4.0,5.0,93,0.00,,,0.00,Wunderground v.1.15,2013-01-10 02:45:00,
2013-01-09 20:50:00,30.3,28.5,30.44,SE,131,4.0,5.0,93,0.00,,,0.00,Wunderground v.1.15,2013-01-10 02:50:00,
2013-01-09 20:55:00,30.5,28.7,30.45,SE,133,4.0,4.0,93,0.00,,,0.00,Wunderground v.1.15,2013-01-10 02:55:00,
2013-01-09 21:00:00,30.6,28.8,30.44,SE,144,4.0,4.0,93,0.00,,,0.00,Wunderground v.1.15,2013-01-10 03:00:00,
2013-01-09 21:05:00,30.7,28.9,30.44,SE,144,2.0,4.0,93,0.00,,,0.00,Wunderground v.1.15,2013-01-10 03:05:00,
2013-01-09 21:10:00,30.7,28.9,30.44,SSE,147,2.0,4.0,93,0.00,,,0.00,Wunderground v.1.15,2013-01-10 03:10:00,
2013-01-09 21:15:00,30.6,28.6,30.44,SSE,148,2.0,4.0,92,0.00,,,0.00,Wunderground v.1.15,2013-01-10 03:15:00,
2013-01-09 21:20:00,30.5,28.5,30.44,SE,146,4.0,5.0,92,0.00,,,0.00,Wunderground v.1.15,2013-01-10 03:20:00,
2013-01-09 21:25:00,30.3,28.3,30.44,SE,142,4.0,4.0,92,0.00,,,0.00,Wunderground v.1.15,2013-01-10 03:25:00,
2013-01-09 21:30:00,30.2,28.2,30.44,SE,144,4.0,5.0,92,0.00,,,0.00,Wunderground v.1.15,2013-01-10 03:30:00,
2013-01-09 21:35:00,30.1,28.1,30.44,SE,142,4.0,5.0,92,0.00,,,0.00,Wunderground v.1.15,2013-01-10 03:35:00,
2013-01-09 21:42:00,30.2,28.2,30.44,SE,139,1.0,3.0,92,0.00,,,0.00,Wunderground v.1.15,2013-01-10 03:42:00,
2013-01-09 21:47:00,30.3,28.3,30.44,ESE,118,2.0,4.0,92,0.00,,,0.00,Wunderground v.1.15,2013-01-10 03:47:00,
2013-01-09 21:52:00,30.3,28.3,30.44,SE,145,4.0,4.0,92,0.00,,,0.00,Wunderground v.1.15,2013-01-10 03:52:00,
2013-01-09 21:57:00,30.3,28.0,30.44,SE,144,5.0,5.0,91,0.00,,,0.00,Wunderground v.1.15,2013-01-10 03:57:00,
2013-01-09 22:02:00,29.9,27.6,30.45,SE,140,5.0,5.0,91,0.00,,,0.00,Wunderground v.1.15,2013-01-10 04:02:00,
2013-01-09 22:07:00,29.6,27.3,30.45,SSE,147,5.0,5.0,91,0.00,,,0.00,Wunderground v.1.15,2013-01-10 04:07:00,
2013-01-09 22:12:00,29.2,26.9,30.45,SE,140,6.0,6.0,91,0.00,,,0.00,Wunderground v.1.15,2013-01-10 04:12:00,
2013-01-09 22:17:00,28.9,26.6,30.45,SE,146,4.0,6.0,91,0.00,,,0.00,Wunderground v.1.15,2013-01-10 04:17:00,
2013-01-09 22:22:00,28.9,26.9,30.45,SE,138,5.0,5.0,92,0.00,,,0.00,Wunderground v.1.15,2013-01-10 04:22:00,
2013-01-09 22:27:00,29.2,27.2,30.45,SSE,150,4.0,6.0,92,0.00,,,0.00,Wunderground v.1.15,2013-01-10 04:27:00,
2013-01-09 22:32:00,29.4,27.4,30.45,SSE,152,4.0,5.0,92,0.00,,,0.00,Wunderground v.1.15,2013-01-10 04:32:00,
2013-01-09 22:37:00,29.3,27.3,30.45,SE,143,5.0,6.0,92,0.00,,,0.00,Wunderground v.1.15,2013-01-10 04:37:00,
2013-01-09 22:42:00,29.1,27.1,30.45,SSE,164,2.0,5.0,92,0.00,,,0.00,Wunderground v.1.15,2013-01-10 04:42:00,
2013-01-09 22:47:00,29.0,27.0,30.45,SSE,147,2.0,5.0,92,0.00,,,0.00,Wunderground v.1.15,2013-01-10 04:47:00,
2013-01-09 22:52:00,28.9,26.9,30.45,SE,146,4.0,4.0,92,0.00,,,0.00,Wunderground v.1.15,2013-01-10 04:52:00,
2013-01-09 22:57:00,28.7,26.4,30.45,SSE,152,4.0,5.0,91,0.00,,,0.00,Wunderground v.1.15,2013-01-10 04:57:00,
2013-01-09 23:00:00,28.6,26.6,30.45,SSE,151,5.0,5.0,92,0.00,,,0.00,Wunderground v.1.15,2013-01-10 05:00:00,
2013-01-09 23:03:00,28.6,26.6,30.45,SSE,151,4.0,4.0,92,0.00,,,0.00,Wunderground v.1.15,2013-01-10 05:03:00,
2013-01-09 23:08:00,28.5,26.5,30.45,SSE,161,4.0,5.0,92,0.00,,,0.00,Wunderground v.1.15,2013-01-10 05:08:00,
2013-01-09 23:13:00,28.6,26.6,30.45,SE,145,5.0,5.0,92,0.00,,,0.00,Wunderground v.1.15,2013-01-10 05:13:00,
2013-01-09 23:18:00,28.8,27.0,30.45,SE,142,5.0,5.0,93,0.00,,,0.00,Wunderground v.1.15,2013-01-10 05:18:00,
2013-01-09 23:23:00,28.9,26.9,30.45,SE,144,5.0,5.0,92,0.00,,,0.00,Wunderground v.1.15,2013-01-10 05:23:00,
2013-01-09 23:28:00,28.8,26.8,30.45,SSE,150,5.0,5.0,92,0.00,,,0.00,Wunderground v.1.15,2013-01-10 05:28:00,
2013-01-09 23:33:00,28.8,26.8,30.45,SSE,154,2.0,4.0,92,0.00,,,0.00,Wunderground v.1.15,2013-01-10 05:33:00,
2013-01-09 23:38:00,28.7,26.7,30.45,SSE,165,4.0,6.0,92,0.00,,,0.00,Wunderground v.1.15,2013-01-10 05:38:00,
2013-01-09 23:43:00,28.7,26.7,30.45,SSE,148,5.0,5.0,92,0.00,,,0.00,Wunderground v.1.15,2013-01-10 05:43:00,
2013-01-09 23:48:00,28.9,26.9,30.44,SSE,148,5.0,6.0,92,0.00,,,0.00,Wunderground v.1.15,2013-01-10 05:48:00,
2013-01-09 23:53:00,29.3,27.3,30.44,SE,144,4.0,6.0,92,0.00,,,0.00,Wunderground v.1.15,2013-01-10 05:53:00,
2013-01-09 23:58:00,29.6,27.6,30.44,SE,142,5.0,6.0,92,0.00,,,0.00,Wunderground v.1.15,2013-01-10 05:58:00,